TimeCDT,TemperatureF,Dew PointF,Humidity,Sea Level PressureIn,VisibilityMPH,Wind Direction,Wind SpeedMPH,Gust SpeedMPH,PrecipitationIn,Events,Conditions,WindDirDegrees,DateUTC
12:15 AM,23.0,23.0,100,29.83,4.0,NE,13.8,-,N/A,,Overcast,50,2013-04-08 05:15:00
12:35 AM,23.0,23.0,100,29.83,5.0,NE,16.1,21.9,N/A,,Overcast,50,2013-04-08 05:35:00
12:55 AM,23.0,23.0,100,29.84,5.0,NE,18.4,24.2,N/A,,Overcast,40,2013-04-08 05:55:00
1:15 AM,21.2,21.2,100,29.85,8.0,NE,17.3,-,N/A,,Overcast,40,2013-04-08 06:15:00
1:35 AM,21.2,21.2,100,29.85,10.0,NE,17.3,24.2,N/A,,Overcast,40,2013-04-08 06:35:00
1:55 AM,19.4,19.4,100,29.86,5.0,NE,18.4,23.0,N/A,,Overcast,40,2013-04-08 06:55:00
2:15 AM,19.4,19.4,100,29.87,9.0,NE,17.3,-,N/A,,Overcast,50,2013-04-08 07:15:00
2:35 AM,19.4,19.4,100,29.87,9.0,NE,19.6,24.2,N/A,,Overcast,40,2013-04-08 07:35:00
2:55 AM,19.4,19.4,100,29.87,8.0,NE,18.4,25.3,N/A,,Overcast,40,2013-04-08 07:55:00
3:15 AM,19.4,19.4,100,29.87,5.0,NE,23.0,28.8,N/A,,Overcast,40,2013-04-08 08:15:00
3:35 AM,17.6,17.6,100,29.87,5.0,NE,20.7,27.6,N/A,,Overcast,40,2013-04-08 08:35:00
3:55 AM,17.6,17.6,100,29.87,4.0,NNE,21.9,-,N/A,,Overcast,30,2013-04-08 08:55:00
4:15 AM,17.6,15.8,93,29.88,10.0,NE,21.9,27.6,N/A,,Overcast,40,2013-04-08 09:15:00
4:35 AM,15.8,14.0,93,29.89,10.0,NE,19.6,-,N/A,,Overcast,40,2013-04-08 09:35:00
4:55 AM,15.8,14.0,93,29.89,9.0,NE,18.4,26.5,N/A,,Overcast,40,2013-04-08 09:55:00
5:15 AM,15.8,14.0,93,29.90,10.0,NE,19.6,-,N/A,,Overcast,40,2013-04-08 10:15:00
5:35 AM,15.8,14.0,93,29.91,10.0,NNE,23.0,29.9,N/A,,Overcast,30,2013-04-08 10:35:00
5:55 AM,15.8,14.0,93,29.92,10.0,NNE,18.4,25.3,N/A,,Overcast,30,2013-04-08 10:55:00
6:15 AM,15.8,12.2,86,29.92,10.0,NNE,20.7,-,N/A,,Overcast,30,2013-04-08 11:15:00
6:35 AM,15.8,12.2,86,29.93,10.0,NNE,19.6,26.5,N/A,,Overcast,30,2013-04-08 11:35:00
6:55 AM,15.8,14.0,93,29.93,10.0,NNE,18.4,24.2,N/A,,Overcast,30,2013-04-08 11:55:00
7:15 AM,15.8,14.0,93,29.93,10.0,NNE,20.7,-,N/A,,Overcast,30,2013-04-08 12:15:00
7:35 AM,15.8,14.0,93,29.94,7.0,NNE,23.0,-,N/A,,Overcast,30,2013-04-08 12:35:00
7:55 AM,15.8,14.0,93,29.95,5.0,NNE,17.3,29.9,N/A,,Overcast,20,2013-04-08 12:55:00
8:15 AM,15.8,14.0,93,29.95,4.0,NNE,23.0,27.6,N/A,,Overcast,20,2013-04-08 13:15:00
8:35 AM,15.8,14.0,93,29.96,7.0,NNE,20.7,26.5,N/A,,Overcast,20,2013-04-08 13:35:00
8:55 AM,15.8,12.2,86,29.97,10.0,North,18.4,24.2,N/A,,Overcast,10,2013-04-08 13:55:00
9:15 AM,15.8,12.2,86,29.98,10.0,North,20.7,-,N/A,,Overcast,10,2013-04-08 14:15:00
9:35 AM,15.8,12.2,86,29.98,9.0,North,20.7,-,N/A,Snow,Light Snow,10,2013-04-08 14:35:00
9:55 AM,15.8,12.2,86,29.98,10.0,North,20.7,25.3,N/A,,Overcast,10,2013-04-08 14:55:00
10:15 AM,15.8,12.2,86,29.99,7.0,North,21.9,26.5,N/A,,Overcast,10,2013-04-08 15:15:00
10:35 AM,15.8,12.2,86,29.99,7.0,North,21.9,-,N/A,,Overcast,10,2013-04-08 15:35:00
10:55 AM,15.8,12.2,86,29.99,4.0,North,21.9,-,N/A,,Overcast,10,2013-04-08 15:55:00
11:15 AM,17.6,14.0,86,30.00,5.0,North,25.3,29.9,N/A,,Overcast,10,2013-04-08 16:15:00
11:35 AM,17.6,12.2,79,30.01,7.0,North,23.0,34.5,N/A,,Overcast,10,2013-04-08 16:35:00
11:55 AM,17.6,14.0,86,30.02,10.0,North,24.2,29.9,N/A,,Overcast,10,2013-04-08 16:55:00
12:15 PM,17.6,12.2,79,30.03,10.0,North,26.5,-,N/A,,Overcast,10,2013-04-08 17:15:00
12:35 PM,17.6,12.2,79,30.04,10.0,North,24.2,-,N/A,,Overcast,10,2013-04-08 17:35:00
12:55 PM,17.6,12.2,79,30.05,10.0,North,21.9,28.8,N/A,,Overcast,10,2013-04-08 17:55:00
1:15 PM,17.6,10.4,73,30.05,10.0,North,24.2,-,N/A,,Mostly Cloudy,360,2013-04-08 18:15:00
1:35 PM,17.6,12.2,79,30.08,10.0,North,20.7,27.6,N/A,,Mostly Cloudy,360,2013-04-08 18:35:00
1:55 PM,17.6,10.4,73,30.08,10.0,North,20.7,-,N/A,,Overcast,360,2013-04-08 18:55:00
2:15 PM,17.6,10.4,73,30.09,10.0,North,23.0,28.8,N/A,,Scattered Clouds,10,2013-04-08 19:15:00
2:35 PM,17.6,10.4,73,30.10,10.0,North,20.7,-,N/A,,Partly Cloudy,360,2013-04-08 19:35:00
2:55 PM,17.6,10.4,73,30.10,10.0,North,23.0,-,N/A,,Scattered Clouds,360,2013-04-08 19:55:00
3:15 PM,15.8,10.4,79,30.11,10.0,North,23.0,-,N/A,,Partly Cloudy,360,2013-04-08 20:15:00
3:35 PM,15.8,10.4,79,30.12,10.0,North,19.6,-,N/A,,Partly Cloudy,360,2013-04-08 20:35:00
3:55 PM,15.8,8.6,73,30.12,10.0,North,24.2,-,N/A,,Partly Cloudy,360,2013-04-08 20:55:00
4:15 PM,15.8,8.6,73,30.13,10.0,North,20.7,27.6,N/A,,Clear,360,2013-04-08 21:15:00
4:35 PM,17.6,8.6,68,30.14,10.0,North,23.0,-,N/A,,Partly Cloudy,350,2013-04-08 21:35:00
4:55 PM,15.8,8.6,73,30.15,10.0,North,20.7,-,N/A,,Mostly Cloudy,360,2013-04-08 21:55:00
5:15 PM,15.8,8.6,73,30.14,10.0,North,19.6,-,N/A,,Overcast,360,2013-04-08 22:15:00
5:35 PM,15.8,8.6,73,30.15,10.0,North,20.7,-,N/A,,Scattered Clouds,360,2013-04-08 22:35:00
5:55 PM,15.8,10.4,79,30.15,10.0,North,19.6,-,N/A,,Scattered Clouds,360,2013-04-08 22:55:00
6:15 PM,15.8,8.6,73,30.15,10.0,North,19.6,-,N/A,,Scattered Clouds,360,2013-04-08 23:15:00
6:35 PM,15.8,8.6,73,30.17,10.0,North,17.3,-,N/A,,Partly Cloudy,360,2013-04-08 23:35:00
6:55 PM,15.8,8.6,73,30.19,10.0,North,16.1,21.9,N/A,,Clear,360,2013-04-08 23:55:00
7:15 PM,14.0,8.6,79,30.18,10.0,North,17.3,-,N/A,,Clear,360,2013-04-09 00:15:00
7:35 PM,14.0,6.8,73,30.19,10.0,North,17.3,-,N/A,,Clear,360,2013-04-09 00:35:00
7:55 PM,14.0,6.8,73,30.20,10.0,North,16.1,-,N/A,,Clear,360,2013-04-09 00:55:00
8:15 PM,12.2,6.8,79,30.21,10.0,North,15.0,-,N/A,,Clear,360,2013-04-09 01:15:00
8:35 PM,10.4,5.0,79,30.23,10.0,North,13.8,-,N/A,,Clear,360,2013-04-09 01:35:00
8:55 PM,10.4,5.0,79,30.24,10.0,North,12.7,-,N/A,,Clear,350,2013-04-09 01:55:00
9:15 PM,8.6,5.0,85,30.24,10.0,North,12.7,-,N/A,,Clear,350,2013-04-09 02:15:00
9:35 PM,8.6,3.2,79,30.24,10.0,North,12.7,-,N/A,,Clear,350,2013-04-09 02:35:00
9:55 PM,8.6,1.4,73,30.25,10.0,North,12.7,-,N/A,,Clear,350,2013-04-09 02:55:00
10:15 PM,8.6,1.4,73,30.26,10.0,North,11.5,-,N/A,,Clear,350,2013-04-09 03:15:00
10:35 PM,8.6,1.4,73,30.26,10.0,North,10.4,-,N/A,,Clear,350,2013-04-09 03:35:00
10:55 PM,6.8,1.4,79,30.26,10.0,North,11.5,-,N/A,,Clear,350,2013-04-09 03:55:00
11:15 PM,6.8,-0.4,72,30.28,10.0,North,5.8,-,N/A,,Clear,360,2013-04-09 04:15:00
11:35 PM,6.8,-0.4,72,30.28,10.0,NW,3.5,-,N/A,,Clear,320,2013-04-09 04:35:00
11:55 PM,5.0,-0.4,78,30.29,10.0,NW,6.9,-,N/A,,Clear,320,2013-04-09 04:55:00